Satellite: AUBIESAT Catalog number: 37854 Epoch time: 12299.87073008 Element set: 322 Inclination: 101.7062 deg RA of node: 040.0413 deg Eccentricity: 0.0242994 Arg of perigee: 337.1178 deg Mean anomaly: 021.9323 deg Mean motion: 14.81661249 rev/day Decay rate: 6.031e-05 rev/day^2 Epoch rev: 5373 Checksum: 277
Satellite: HRBE Catalog number: 37855 Epoch time: 12299.89941486 Element set: 318 Inclination: 101.7075 deg RA of node: 039.9889 deg Eccentricity: 0.0244223 Arg of perigee: 337.2152 deg Mean anomaly: 021.8353 deg Mean motion: 14.81454858 rev/day Decay rate: 5.642e-05 rev/day^2 Epoch rev: 5373 Checksum: 332
Satellite: RS-39 Catalog number: 38051 Epoch time: 12299.88598756 Element set: 828 Inclination: 051.6370 deg RA of node: 256.0270 deg Eccentricity: 0.0013756 Arg of perigee: 140.3683 deg Mean anomaly: 263.1372 deg Mean motion: 15.26810022 rev/day Decay rate: 2.0398e-04 rev/day^2 Epoch rev: 4192 Checksum: 314
Satellite: E-STAR Catalog number: 38079 Epoch time: 12299.62917361 Element set: 596 Inclination: 069.4828 deg RA of node: 015.6097 deg Eccentricity: 0.0697809 Arg of perigee: 082.0239 deg Mean anomaly: 285.9446 deg Mean motion: 14.24884213 rev/day Decay rate: 4.3967e-04 rev/day^2 Epoch rev: 3609 Checksum: 363
Satellite: GOLIAT Catalog number: 38085 Epoch time: 12299.64953393 Element set: 562 Inclination: 069.4832 deg RA of node: 016.3335 deg Eccentricity: 0.0704347 Arg of perigee: 082.4519 deg Mean anomaly: 285.5947 deg Mean motion: 14.23644034 rev/day Decay rate: 4.3361e-04 rev/day^2 Epoch rev: 3607 Checksum: 320
Satellite: HORYU-2 Catalog number: 38340 Epoch time: 12299.77878823 Element set: 208 Inclination: 098.1866 deg RA of node: 239.8910 deg Eccentricity: 0.0011802 Arg of perigee: 279.2484 deg Mean anomaly: 080.7387 deg Mean motion: 14.70321274 rev/day Decay rate: 2.623e-05 rev/day^2 Epoch rev: 2366 Checksum: 324
Satellite: RS-40 Catalog number: 38736 Epoch time: 12299.57642088 Element set: 89 Inclination: 082.4755 deg RA of node: 301.4110 deg Eccentricity: 0.0019881 Arg of perigee: 117.5622 deg Mean anomaly: 242.7483 deg Mean motion: 12.42647005 rev/day Decay rate: 1.0e-07 rev/day^2 Epoch rev: 1110 Checksum: 279
Satellite: PROITERES Catalog number: 38756 Epoch time: 12299.72731812 Element set: 167 Inclination: 098.2804 deg RA of node: 006.1931 deg Eccentricity: 0.0013542 Arg of perigee: 129.1357 deg Mean anomaly: 231.1052 deg Mean motion: 14.73937216 rev/day Decay rate: 1.064e-05 rev/day^2 Epoch rev: 685 Checksum: 286
Satellite: AENEAS Catalog number: 38760 Epoch time: 12298.31629831 Element set: 0047 Inclination: 064.6718 deg RA of node: 276.8338 deg Eccentricity: 0.0218398 Arg of perigee: 278.1463 deg Mean anomaly: 079.4936 deg Mean motion: 14.79328824 rev/day Decay rate: 1.0038e-04 rev/day^2 Epoch rev: 00596 Checksum: 346
Satellite: CSSWE-D Catalog number: 38761 Epoch time: 12298.31357253 Element set: 0042 Inclination: 064.6726 deg RA of node: 276.8243 deg Eccentricity: 0.0219448 Arg of perigee: 278.1604 deg Mean anomaly: 079.4686 deg Mean motion: 14.79327712 rev/day Decay rate: 6.476e-05 rev/day^2 Epoch rev: 00596 Checksum: 336
Satellite: CXBN-E Catalog number: 38762 Epoch time: 12298.44743389 Element set: 0042 Inclination: 064.6738 deg RA of node: 276.4052 deg Eccentricity: 0.0219308 Arg of perigee: 277.9029 deg Mean anomaly: 079.7277 deg Mean motion: 14.79404992 rev/day Decay rate: 7.454e-05 rev/day^2 Epoch rev: 00598 Checksum: 354
Satellite: OBJECT F Catalog number: 38763 Epoch time: 12298.44715918 Element set: 0040 Inclination: 064.6724 deg RA of node: 276.4017 deg Eccentricity: 0.0219671 Arg of perigee: 278.1644 deg Mean anomaly: 079.4619 deg Mean motion: 14.79379828 rev/day Decay rate: 6.264e-05 rev/day^2 Epoch rev: 00582 Checksum: 341
Satellite: CINEMA-G Catalog number: 38764 Epoch time: 12298.44683446 Element set: 0040 Inclination: 064.6723 deg RA of node: 276.3967 deg Eccentricity: 0.0219406 Arg of perigee: 278.2084 deg Mean anomaly: 079.4214 deg Mean motion: 14.79401011 rev/day Decay rate: 6.525e-05 rev/day^2 Epoch rev: 00598 Checksum: 318
Satellite: CP5 Catalog number: 38765 Epoch time: 12298.47334000 Element set: 0041 Inclination: 064.6726 deg RA of node: 276.3011 deg Eccentricity: 0.0218766 Arg of perigee: 277.9598 deg Mean anomaly: 226.6709 deg Mean motion: 14.79487188 rev/day Decay rate: 8.350e-05 rev/day^2 Epoch rev: 00598 Checksum: 345
Satellite: RAIKO Catalog number: 38852 Epoch time: 12299.87907583 Element set: 19 Inclination: 051.6464 deg RA of node: 191.9836 deg Eccentricity: 0.0018826 Arg of perigee: 198.0064 deg Mean anomaly: 162.0258 deg Mean motion: 15.52789701 rev/day Decay rate: 4.7878e-04 rev/day^2 Epoch rev: 323 Checksum: 340
Satellite: FITSAT 1 Catalog number: 38853 Epoch time: 12299.87727956 Element set: 21 Inclination: 051.6485 deg RA of node: 191.9704 deg Eccentricity: 0.0014645 Arg of perigee: 207.0984 deg Mean anomaly: 152.9262 deg Mean motion: 15.53088154 rev/day Decay rate: 5.7221e-04 rev/day^2 Epoch rev: 328 Checksum: 319
Satellite: TechEdSat Catalog number: 38854 Epoch time: 12298.90849351 Element set: 0029 Inclination: 051.6464 deg RA of node: 196.7461 deg Eccentricity: 0.0014672 Arg of perigee: 204.5586 deg Mean anomaly: 155.4735 deg Mean motion: 15.53553041 rev/day Decay rate: 7.5543e-04 rev/day^2 Epoch rev: 00314 Checksum: 311
Satellite: F 1 Catalog number: 38855 Epoch time: 12298.97345513 Element set: 0028 Inclination: 051.6468 deg RA of node: 196.4289 deg Eccentricity: 0.0013882 Arg of perigee: 205.1695 deg Mean anomaly: 154.8620 deg Mean motion: 15.53477922 rev/day Decay rate: 7.3109e-04 rev/day^2 Epoch rev: 00304 Checksum: 323
Satellite: WeWish Catalog number: 38856 Epoch time: 12298.96806591 Element set: 0030 Inclination: 051.6491 deg RA of node: 196.3990 deg Eccentricity: 0.0019441 Arg of perigee: 195.0921 deg Mean anomaly: 164.9494 deg Mean motion: 15.54427406 rev/day Decay rate: 1.05875e-03 rev/day^2 Epoch rev: 00304 Checksum: 322
/EX